Location: Gleizolles
(44.4833°N, 6.7667°E)
Time: 22:16:14
(UTC+00:00)

A-11 Canister half - Pass Details

Date: 29 June 2024
Orbit: 1524 x 1684 km, 47.3° (Epoch: 18 July)

Event Time Altitude Azimuth Distance (km) Brightness Sun altitude
Rises 17:20:52 0° 294° (WNW) 4,684 13.1 18.7°
Reaches altitude 10° 17:24:13 10° 286° (WNW) 3,693 13.7 18.1°
Maximum altitude 17:32:18 35° 225° (SW) 2,264 10.5 16.7°
Drops below altitude 10° 17:40:27 10° 163° (SSE) 3,710 10.7 15.3°
Sets 17:43:51 0° 155° (SSE) 4,707 11.2 14.8°
